Location: Aalsum
(53.3404°N, 6.0062°E)
Time: 09:19:50
(UTC+00:00)

Cosmos 1386 Rocket - Pass Details

Date: 28 January 2023
Orbit: 929 x 1005 km, 83.0° (Epoch: 19 March)

Event Time Altitude Azimuth Distance (km) Brightness Sun altitude
Rises 18:42:46 0° 351° (N) 3,609 7.6 -22.4°
Reaches altitude 10° 18:45:20 10° 356° (N) 2,656 6.8 -22.8°
Maximum altitude 18:51:16 55° 73° (ENE) 1,117 4.4 -23.7°
Enters shadow 18:51:46 53° 92° (E) 1,135 4.4 -23.8°
